Regional Weather Roundup
Issued by NWS Memphis, TN

Home | Current Version | Previous Version | Text Only | Print | Product List | Glossary On
Versions: 1 2 3 4 5 6 7 8 9 10 11 12 13 14 15 16 17 18 19 20 21 22 23 24 25 26 27 28 29 30 31 32 33 34 35 36 37 38 39 40 41 42 43 44 45 46 47 48 49 50
000
ASUS44 KMEG 262210
RWRMEG
MEMPHIS CWA HOURLY WEATHER ROUNDUP
NATIONAL WEATHER SERVICE MEMPHIS TN
500 PM CDT MON SEP 26 2016

...WEST TENNESSEE...

CITY           SKY/WX    TMP DP  RH WIND       PRES   REMARKS
MEMPHIS INTL   PTSUNNY   75  59  57 N8        30.06F
NWS MEMPHIS      N/A     73 N/A N/A MISG        N/A
JACKSON        PTSUNNY  N/A N/A N/A N9        30.07F
BOLIVAR        PTSUNNY   66  63  88 VRB5      30.06F
LEXINGTON      MOSUNNY   66  61  82 N6        30.06F
DYERSBURG      MOSUNNY  N/A N/A N/A MISG        N/A
UNION CITY     SUNNY     72  54  53 VRB3      30.08F
PARIS          SUNNY     66  52  59 CALM      30.09F
HUNTINGDON     SUNNY     68  55  64 N6        30.07F


...EASTERN ARKANSAS...

CITY           SKY/WX    TMP DP  RH WIND       PRES   REMARKS
JONESBORO      MOSUNNY   73  52  47 N7        30.09F
WEST MEMPHIS   CLOUDY    72  53  51 N15       30.06F
BATESVILLE     MOSUNNY   73  54  49 W5        30.10F
NEWPORT        MOSUNNY   72  53  51 N8        30.10F HAZE
WALNUT RIDGE   SUNNY     75  52  43 N10       30.09F
BLYTHEVILLE    MOSUNNY   73  54  51 E5        30.08F
NW BLYTHEVILLE CLOUDY    70  50  49 N9G18     30.09F
SEARCY         CLOUDY    75  54  47 N6        30.11F
STUTTGART      SUNNY     73  52  46 N14       30.09F
PINE BLUFF     PTSUNNY   73  54  51 N10       30.07F
MONTICELLO     CLOUDY    76  60  57 VRB3      30.05F


...NORTH MISSISSIPPI...

CITY           SKY/WX    TMP DP  RH WIND       PRES   REMARKS
TUPELO         SUNNY     83  61  47 N16       29.99S
OXFORD         SUNNY     75  59  57 N9        30.04F
BATESVILLE     PTSUNNY   75  59  58 N7        30.04S
OLIVE BRANCH   PTSUNNY  N/A N/A N/A E7        30.05F
TUNICA         PTSUNNY   73  55  53 N12       30.06S
CLARKSDALE     SUNNY     77  57  50 N12G17    30.05S
CORINTH        SUNNY     73  61  64 N12       30.03S
GREENWOOD      SUNNY     81  62  52 N10       29.98F
COLUMBUS       SUNNY     87  69  55 NW13      29.95R HX  91
STARKVILLE     SUNNY     88  68  51 N7        29.96F HX  91
GOLDEN TRIANGL SUNNY     93  66  40 N12       29.95S HX  96


...SOUTHEAST MISSOURI...

CITY           SKY/WX    TMP DP  RH WIND       PRES   REMARKS
KENNETT        MOSUNNY   73  55  53 N8        30.07F
WEST PLAINS    SUNNY     73  44  35 N10       30.15
POPLAR BLUFF   SUNNY     75  50  41 N9        30.08F


...NORTHWEST ALABAMA...

CITY           SKY/WX    TMP DP  RH WIND       PRES   REMARKS
MUSCLE SHOALS  MOSUNNY   83  64  52 N7        30.02S


...MIDDLE TENNESSEE...

CITY           SKY/WX    TMP DP  RH WIND       PRES   REMARKS
NASHVILLE      CLOUDY    66  61  84 NW8       30.07R
CLARKSVILLE    PTSUNNY   68  54  60 N8        30.08F
COLUMBIA       CLOUDY   N/A N/A N/A N7        30.05S


...WESTERN KENTUCKY...

CITY           SKY/WX    TMP DP  RH WIND       PRES   REMARKS
PADUCAH        SUNNY     75  52  44 N6        30.07F
FORT CAMPBELL  PTSUNNY   68  54  60 N8        30.07F


...CENTRAL ARKANSAS...

CITY           SKY/WX    TMP DP  RH WIND       PRES   REMARKS
LITTLE ROCK    MOSUNNY   76  50  40 NE9       30.10F


SKY/WX REPORTED AS FAIR MEANS FEW OR NO CLOUDS BELOW
12 THOUSAND FEET.





USA.gov is the U.S. government's official web portal to all federal, state and local government web resources and services.